Weather past 2 weeks in Cayenne, French Guiana

Now
86 °F

Scattered clouds.


Feels Like: 93 °F
Forecast: 77 / 86 °F
Wind: 16 mph from Northeast

Location: Cayenne / Rochambeau

Current Time: Jul 28, 2014 at 2:04:01 PM

Latest Report: Jul 28, 2014 at 1:30 PM


Visibility: N/A

Pressure: 30.01 "Hg

Humidity: 66%

Dew point: 73 °F

Location of CayenneLocation

Historic Weather in Cayenne — Graph

°F

Cayenne temperature yesterday

Maximum temperature yesterday: 90 °F (at 11:30 AM)
Minimum temperature yesterday: 72 °F (at 5:00 AM)
Average temperature yesterday: 79 °F

Past Weeks' High & Low Weather Summary

 TemperatureHumidityPressure
High91 °F (Jul 26, 2:00 PM)100% (Jul 15, 6:30 AM)30.04 "Hg (Jul 15, 6:30 AM)
Low70 °F (Jul 25, 5:30 AM)38% (Jul 26, 3:30 PM)29.83 "Hg (Jul 25, 4:00 PM)
Average80 °F79%29.96 "Hg
* Reported Jul 13 1:00 PM — Jul 28 1:00 PM, Cayenne, Weather by CustomWeather, © 2014

Note: Actual official high and low records may vary slightly from our data, if they occured in-between our weather recording intervals... More about our weather records

Advertising

Cayenne weather history for previous 24 hours

 ConditionsComfort  
Time TempWeatherWind HumidityBarometerVisibility
1:00 PM
Jul 28
86 °FBroken clouds.10 mph62%30.01 "HgN/A
12:30 PM86 °FScattered clouds.7 mph62%30.01 "HgN/A
12:00 PM84 °FScattered clouds.7 mph74%30.04 "HgN/A
11:30 AM82 °FScattered clouds.8 mph74%30.04 "HgN/A
11:00 AM77 °FRain. Fog.13 mph83%30.04 "Hg1 mi
10:30 AM81 °FRain. Broken clouds.5 mph84%30.04 "HgN/A
10:00 AM84 °FBroken clouds.5 mph70%30.04 "HgN/A
9:30 AM82 °FPassing clouds.3 mph79%30.04 "HgN/A
9:00 AM81 °FClear.1 mph84%30.04 "HgN/A
8:30 AM77 °FClear.2 mph94%30.04 "HgN/A
8:00 AM75 °FPassing clouds.No wind94%30.04 "HgN/A
7:30 AM73 °FClear.No wind94%30.01 "HgN/A
7:00 AM72 °FClear.No wind100%30.01 "HgN/A
6:30 AM72 °FClear.No wind94%30.01 "HgN/A
6:00 AM72 °FClear.2 mph94%30.01 "HgN/A
5:30 AM72 °FClear.No wind100%29.98 "HgN/A
5:00 AM72 °FClear.2 mph100%29.98 "HgN/A
4:30 AM72 °FPassing clouds.No wind94%29.98 "HgN/A
4:00 AM72 °FPassing clouds.No wind100%29.98 "HgN/A
3:30 AM72 °FFog.No wind94%29.98 "HgN/A
3:00 AM72 °FPassing clouds.No wind94%29.95 "HgN/A
2:30 AM73 °FClear.1 mph94%29.98 "HgN/A
2:00 AM73 °FFog.2 mph94%29.98 "Hg2 mi
1:30 AM73 °FPassing clouds.2 mph94%29.98 "HgN/A
1:00 AM73 °FClear.2 mph94%29.98 "HgN/A
12:30 AM73 °FClear.1 mph94%30.01 "HgN/A
11:30 PM
Jul 27
73 °FClear.No wind94%30.01 "HgN/A
11:00 PM75 °FClear.No wind89%30.01 "HgN/A
10:30 PM77 °FClear.2 mph89%30.01 "HgN/A
10:00 PM77 °FClear.3 mph89%30.01 "HgN/A
9:30 PM79 °FClear.2 mph84%29.98 "HgN/A
9:00 PM79 °FClear.5 mph84%29.98 "HgN/A
8:30 PM77 °FPassing clouds.3 mph89%29.98 "HgN/A
8:00 PM79 °FPassing clouds.5 mph84%29.95 "HgN/A
7:30 PM81 °FPassing clouds.5 mph79%29.95 "HgN/A
7:00 PM81 °FClear.7 mph79%29.92 "HgN/A
6:30 PM82 °FClear.10 mph70%29.92 "HgN/A
6:00 PM82 °FClear.12 mph70%29.92 "HgN/A
5:30 PM84 °FClear.14 mph66%29.92 "HgN/A
5:00 PM84 °FBroken clouds.10 mph66%29.92 "HgN/A
4:30 PM86 °FPartly sunny.12 mph66%29.92 "HgN/A
4:00 PM86 °FWarm.9 mph66%29.92 "HgN/A
3:30 PM81 °FBroken clouds.5 mph79%29.92 "HgN/A
3:00 PM79 °FThundershowers. Broken clouds.12 mph79%29.92 "HgN/A
2:30 PM84 °FBroken clouds.10 mph70%29.92 "HgN/A
2:00 PM84 °FMostly cloudy.3 mph74%29.95 "HgN/A
Weather by CustomWeather, © 2014

See weather overviewHow to use our weather pages